Regional Weather Roundup
Issued by NWS Cleveland, OH

Home | Current Version | Previous Version | Graphics & Text | Print | Product List | Glossary On
Versions: 1 2 3 4 5 6 7 8 9 10 11 12 13 14 15 16 17 18 19 20 21 22 23 24 25 26 27 28 29 30 31 32 33 34 35 36 37 38 39 40 41 42 43 44 45 46 47 48 49 50
738
ASUS41 KCLE 180112
RWRCLE
OHIO REGIONAL WEATHER ROUNDUP
NATIONAL WEATHER SERVICE WILMINGTON, OH
800 PM EST SUN DEC 17 2017

NOTE: "FAIR" INDICATES FEW OR NO CLOUDS BELOW 12,000 FEET WITH NO
SIGNIFICANT WEATHER AND/OR OBSTRUCTIONS TO VISIBILITY.

OHZ001>008-015>018-024>027-034-035-043-044-180200-
   NORTHWEST OHIO

CITY           SKY/WX    TMP DP  RH WIND       PRES   REMARKS
DEFIANCE       CLOUDY    34  32  92 CALM      30.06R FOG
FINDLAY        CLOUDY    37  33  85 S6        30.07R
TOLEDO EXPRESS CLOUDY    33  32  96 CALM      30.05S
TOLEDO EXEC    CLOUDY    34  31  88 S6        30.06F FOG     WCI  29
LIMA           CLOUDY    38  36  92 S7        30.07R
$$

OHZ009>014-019>023-028>033-038-089-180200-
   NORTHEAST OHIO

CITY           SKY/WX    TMP DP  RH WIND       PRES   REMARKS
CLE-HOPKINS    CLOUDY    37  33  85 S6        30.10R
CLE-LAKEFRONT  CLOUDY    38  32  79 MISG      30.08R
CUY CO. ARPT   CLOUDY    37  32  81 S7        30.08S
LORAIN-ELYRIA  CLOUDY    35  29  78 S3        30.09R
ASHTABULA      CLOUDY    33  29  85 S5        30.08S WCI  29
AKRON-CANTON   CLOUDY    37  31  78 SW8       30.08R
WOOSTER        CLOUDY    35  32  88 SW9       30.09R WCI  28
MANSFIELD      CLOUDY    36  34  92 S9        30.08R
YOUNGSTOWN     CLOUDY    37  32  82 VRB3      30.07R
$$

OHZ042-051>053-060>062-070>072-077>081-180200-
  SOUTHWEST OHIO

CITY           SKY/WX    TMP DP  RH WIND       PRES   REMARKS
CINC-COVINGTON CLOUDY    43  34  70 S10       30.09S
CINC-LUNKEN    CLOUDY    44  34  67 S7        30.12S
HAMILTON       CLOUDY    44  33  65 CALM      30.11S
DAYTON         CLOUDY    40  35  83 S7        30.09S
WRIGHT-PAT AFB CLOUDY    39  36  89 SE3       30.09S
DAYTON GENERAL CLOUDY    42  32  67 S8        30.08S
WILMINGTON     CLOUDY    40  33  76 S6        30.10R
$$

OHZ036-037-039>041-045>050-054>059-063>069-073>076-082>088-180200-
  CENTRAL AND SOUTHEAST OHIO

CITY           SKY/WX    TMP DP  RH WIND       PRES   REMARKS
COLUMBUS       CLOUDY    40  33  76 SE5       30.10S
OSU AIRPORT    CLOUDY    40  34  79 S6        30.09S
BOLTON FIELD   NOT AVBL
RICKENBACK AFB CLOUDY    38  32  78 S5        30.10S
NEWARK         CLOUDY    39  32  76 CALM      30.10S
MARION         CLOUDY    37  34  89 S7        30.09R
LANCASTER      CLOUDY    37  33  85 CALM      30.10S
ZANESVILLE     CLOUDY    38  32  79 CALM      30.11R
NEW PHILLY     CLOUDY    36  33  89 SE3       30.12R
$$




USA.gov is the U.S. government's official web portal to all federal, state and local government web resources and services.